Location: Dompnac
(44.5644°N, 4.1026°E)
Time: 10:44:45
(UTC+00:00)

Cosmos 1626 - Visible Passes

Search period start: 17 January 2021 00:00
Search period end: 27 January 2021 00:00
Orbit: 489 x 494 km, 82.5° (Epoch: 16 January)

Date Brightness Start Highest point End Pass type
(mag) Time Alt. Az. Time Alt. Az. Time Alt. Az.
17 Jan 3.0 17:45:07 10° SSW 17:48:42 50° W 17:52:20 10° N visible
18 Jan 2.3 17:22:36 10° SSW 17:26:17 78° W 17:30:00 10° N visible
20 Jan 5.2 18:15:13 10° W 18:17:02 13° WNW 18:18:51 10° NW visible
21 Jan 4.9 17:51:49 10° WSW 17:54:29 19° WNW 17:57:10 10° NNW visible
22 Jan 4.3 17:28:49 10° SW 17:31:58 26° WNW 17:35:09 10° NNW visible
23 Jan 3.6 17:06:01 10° SSW 17:09:30 39° WNW 17:13:00 10° N visible
26 Jan 5.4 17:37:00 10° W 17:37:51 11° WNW 17:38:42 10° NW visible
